2024-168A

Last updated on Sun Oct 20 2024 00:02:04 GMT+0000 (Coordinated Universal Time)

1 61185U 24168A 24293.19069336 -.00000073 00000+0 00000+0 0 9998 2 61185 54.9181 323.2296 0079230 294.7126 64.5131 1.80096351 553

Satellite not in orbit

2024-168A